| time (UTC) | temp F | wind direction | speed MPH | gust MPH | rain 1hr in | rain 24hr in | rain mn in | humidity % | barometer mb |
| 20260831074018 | 69 | 0 | 0.0 | 0.0 | 0.00 | 0.22 | 0.00 | 91 | 1013.2 |
| 20260831073517 | 69 | 0 | 0.0 | 0.0 | 0.00 | 0.22 | 0.00 | 91 | 1013.3 |
| 20260831073101 | 69 | 0 | 0.0 | 0.0 | 0.00 | 0.22 | 0.00 | 91 | 1013.4 |
| 20260831072515 | 69 | 0 | 0.0 | 0.0 | 0.00 | 0.22 | 0.00 | 91 | 1013.5 |
| 20260831072021 | 70 | 0 | 0.0 | 0.0 | 0.00 | 0.22 | 0.00 | 91 | 1013.5 |
| 20260831071542 | 70 | 0 | 0.0 | 0.0 | 0.00 | 0.22 | 0.00 | 90 | 1013.7 |
| 20260831071020 | 70 | 0 | 0.0 | 2.0 | 0.00 | 0.22 | 0.00 | 90 | 1013.8 |
| 20260831070517 | 70 | 0 | 0.0 | 2.0 | 0.00 | 0.22 | 0.00 | 90 | 1013.9 |
| 20260831070038 | 70 | 0 | 0.0 | 0.0 | 0.00 | 0.22 | 0.00 | 90 | 1014.0 |
| 20260831065520 | 70 | 0 | 0.0 | 3.0 | 0.00 | 0.24 | 0.00 | 90 | 1013.9 |
| 20260831065019 | 70 | 0 | 0.0 | 3.0 | 0.00 | 0.24 | 0.00 | 90 | 1014.0 |
| 20260831064534 | 70 | 0 | 0.0 | 0.0 | 0.00 | 0.24 | 0.00 | 90 | 1014.0 |
| 20260831064016 | 70 | 0 | 0.0 | 0.0 | 0.00 | 0.24 | 0.00 | 90 | 1014.0 |
| 20260831063518 | 70 | 0 | 0.0 | 0.0 | 0.00 | 0.24 | 0.00 | 90 | 1014.1 |
| 20260831063042 | 70 | 0 | 0.0 | 0.0 | 0.00 | 0.24 | 0.00 | 90 | 1014.2 |
| 20260831062518 | 70 | 0 | 0.0 | 0.0 | 0.00 | 0.24 | 0.00 | 90 | 1014.2 |
| 20260831062016 | 70 | 0 | 0.0 | 0.0 | 0.00 | 0.24 | 0.00 | 90 | 1014.3 |
| 20260831061539 | 70 | 0 | 0.0 | 0.0 | 0.00 | 0.24 | 0.00 | 90 | 1014.2 |
| 20260831061025 | 70 | 0 | 0.0 | 0.0 | 0.00 | 0.24 | 0.00 | 89 | 1014.0 |
| 20260831060522 | 70 | 0 | 0.0 | 0.0 | 0.00 | 0.24 | 0.00 | 89 | 1014.1 |
| 20260831060045 | 70 | 0 | 0.0 | 0.0 | 0.00 | 0.24 | 0.00 | 89 | 1014.2 |
| 20260831055520 | 71 | 0 | 0.0 | 0.0 | 0.00 | 0.24 | 0.00 | 89 | 1014.2 |
| 20260831055019 | 71 | 0 | 0.0 | 0.0 | 0.00 | 0.24 | 0.00 | 89 | 1014.0 |
| 20260831054547 | 71 | 0 | 0.0 | 0.0 | 0.00 | 0.24 | 0.00 | 89 | 1014.0 |
| 20260831054020 | 71 | 0 | 0.0 | 0.0 | 0.00 | 0.24 | 0.00 | 88 | 1014.1 |
| 20260831053519 | 71 | 0 | 0.0 | 0.0 | 0.00 | 0.24 | 0.00 | 88 | 1014.0 |
| 20260831053043 | 71 | 0 | 0.0 | 0.0 | 0.00 | 0.24 | 0.00 | 87 | 1014.1 |
| 20260831052521 | 71 | 0 | 0.0 | 0.0 | 0.00 | 0.24 | 0.00 | 87 | 1014.1 |
| 20260831052019 | 71 | 0 | 0.0 | 0.0 | 0.00 | 0.24 | 0.00 | 87 | 1014.0 |
| 20260831051538 | 71 | 0 | 0.0 | 0.0 | 0.00 | 0.24 | 0.00 | 87 | 1014.0 |
| 20260831051016 | 71 | 0 | 0.0 | 0.0 | 0.00 | 0.24 | 0.00 | 87 | 1014.0 |
| 20260831050517 | 72 | 0 | 0.0 | 3.0 | 0.00 | 0.24 | 0.00 | 86 | 1014.1 |
| 20260831050036 | 72 | 0 | 0.0 | 3.0 | 0.00 | 0.24 | 0.00 | 86 | 1014.1 |
| 20260831045516 | 72 | 5 | 0.0 | 3.0 | 0.00 | 0.24 | 0.24 | 86 | 1014.1 |
| 20260831045018 | 72 | 0 | 0.0 | 3.0 | 0.00 | 0.24 | 0.24 | 85 | 1014.1 |
| 20260831044549 | 72 | 276 | 0.0 | 1.0 | 0.00 | 0.24 | 0.24 | 85 | 1014.1 |
| 20260831044019 | 72 | 297 | 0.0 | 4.0 | 0.00 | 0.24 | 0.24 | 85 | 1014.1 |
| 20260831043520 | 72 | 0 | 0.0 | 6.0 | 0.00 | 0.24 | 0.24 | 85 | 1014.1 |
| 20260831043039 | 72 | 269 | 1.0 | 6.0 | 0.00 | 0.24 | 0.24 | 85 | 1014.0 |
| 20260831042516 | 72 | 243 | 2.0 | 6.0 | 0.00 | 0.24 | 0.24 | 85 | 1013.9 |
| 20260831042018 | 72 | 266 | 2.0 | 7.0 | 0.00 | 0.24 | 0.24 | 85 | 1013.7 |
| 20260831041536 | 72 | 225 | 2.0 | 7.0 | 0.00 | 0.24 | 0.24 | 85 | 1013.3 |
| 20260831041019 | 72 | 198 | 2.0 | 7.0 | 0.00 | 0.24 | 0.24 | 85 | 1013.6 |
| 20260831040516 | 72 | 281 | 2.0 | 6.0 | 0.00 | 0.24 | 0.24 | 85 | 1013.5 |
| 20260831040040 | 72 | 259 | 1.0 | 5.0 | 0.00 | 0.24 | 0.24 | 85 | 1013.6 |
| 20260831035519 | 72 | 218 | 2.0 | 5.0 | 0.00 | 0.24 | 0.24 | 85 | 1013.4 |
| 20260831035017 | 72 | 222 | 1.0 | 7.0 | 0.00 | 0.24 | 0.24 | 85 | 1013.3 |
| 20260831034540 | 72 | 203 | 2.0 | 7.0 | 0.00 | 0.24 | 0.24 | 85 | 1013.1 |
| 20260831034016 | 72 | 259 | 2.0 | 8.0 | 0.00 | 0.24 | 0.24 | 85 | 1013.3 |
| 20260831033518 | 72 | 157 | 4.0 | 8.0 | 0.00 | 0.24 | 0.24 | 85 | 1013.2 |
| 20260831033042 | 72 | 152 | 2.0 | 9.0 | 0.00 | 0.24 | 0.24 | 86 | 1013.0 |
| 20260831032521 | 72 | 198 | 2.0 | 9.0 | 0.00 | 0.24 | 0.24 | 86 | 1013.0 |
| 20260831032019 | 72 | 164 | 3.0 | 10.0 | 0.00 | 0.24 | 0.24 | 86 | 1012.9 |
| 20260831031536 | 72 | 155 | 3.0 | 11.0 | 0.00 | 0.24 | 0.24 | 86 | 1013.0 |
| 20260831031019 | 72 | 107 | 3.0 | 11.0 | 0.00 | 0.24 | 0.24 | 85 | 1013.2 |
| 20260831030519 | 72 | 158 | 4.0 | 9.0 | 0.00 | 0.24 | 0.24 | 85 | 1013.5 |
| 20260831030037 | 72 | 195 | 4.0 | 8.0 | 0.00 | 0.24 | 0.24 | 85 | 1013.5 |
| 20260831025518 | 72 | 235 | 1.0 | 10.0 | 0.00 | 0.24 | 0.24 | 85 | 1013.7 |
| 20260831025026 | 72 | 174 | 4.0 | 10.0 | 0.00 | 0.24 | 0.24 | 85 | 1013.8 |
| 20260831024538 | 72 | 193 | 4.0 | 9.0 | 0.00 | 0.24 | 0.24 | 85 | 1013.9 |
| 20260831024017 | 72 | 230 | 4.0 | 8.0 | 0.00 | 0.24 | 0.24 | 85 | 1013.9 |
| 20260831023517 | 72 | 240 | 3.0 | 7.0 | 0.00 | 0.24 | 0.24 | 85 | 1013.9 |
| 20260831023038 | 72 | 214 | 2.0 | 9.0 | 0.00 | 0.24 | 0.24 | 85 | 1013.9 |
| 20260831022516 | 72 | 146 | 3.0 | 9.0 | 0.00 | 0.24 | 0.24 | 85 | 1013.8 |
| 20260831022016 | 72 | 199 | 3.0 | 13.0 | 0.00 | 0.24 | 0.24 | 85 | 1013.8 |
| 20260831021545 | 72 | 203 | 5.0 | 15.0 | 0.00 | 0.24 | 0.24 | 85 | 1013.6 |
| 20260831021019 | 72 | 226 | 4.0 | 15.0 | 0.00 | 0.24 | 0.24 | 85 | 1013.6 |
| 20260831020517 | 72 | 208 | 4.0 | 10.0 | 0.00 | 0.24 | 0.24 | 85 | 1013.5 |
| 20260831020037 | 72 | 205 | 4.0 | 10.0 | 0.00 | 0.24 | 0.24 | 85 | 1013.5 |
| 20260831015516 | 72 | 163 | 3.0 | 13.0 | 0.00 | 0.24 | 0.24 | 85 | 1013.7 |
| 20260831015017 | 72 | 242 | 5.0 | 13.0 | 0.00 | 0.24 | 0.24 | 85 | 1013.7 |
| 20260831014540 | 72 | 144 | 4.0 | 13.0 | 0.00 | 0.24 | 0.24 | 85 | 1013.6 |
| 20260831014021 | 72 | 190 | 5.0 | 13.0 | 0.00 | 0.24 | 0.24 | 85 | 1013.5 |
| 20260831013518 | 72 | 201 | 3.0 | 10.0 | 0.00 | 0.24 | 0.24 | 85 | 1013.6 |
| 20260831013040 | 72 | 175 | 4.0 | 10.0 | 0.00 | 0.24 | 0.24 | 86 | 1013.7 |
| 20260831012518 | 72 | 205 | 3.0 | 13.0 | 0.00 | 0.24 | 0.24 | 86 | 1013.8 |
| 20260831012019 | 72 | 162 | 3.0 | 14.0 | 0.00 | 0.24 | 0.24 | 86 | 1013.8 |
| 20260831011544 | 72 | 209 | 5.0 | 14.0 | 0.00 | 0.24 | 0.24 | 86 | 1013.7 |
| 20260831011019 | 72 | 159 | 5.0 | 13.0 | 0.00 | 0.24 | 0.24 | 86 | 1013.6 |
| 20260831010516 | 72 | 192 | 7.0 | 13.0 | 0.00 | 0.24 | 0.24 | 86 | 1013.4 |
| 20260831010047 | 72 | 251 | 4.0 | 10.0 | 0.00 | 0.24 | 0.24 | 86 | 1013.3 |
| 20260831005519 | 72 | 180 | 3.0 | 11.0 | 0.00 | 0.24 | 0.24 | 86 | 1013.3 |
| 20260831005020 | 72 | 211 | 4.0 | 12.0 | 0.00 | 0.24 | 0.24 | 86 | 1013.3 |
| 20260831004534 | 72 | 231 | 4.0 | 12.0 | 0.00 | 0.24 | 0.24 | 86 | 1013.3 |
| 20260831004016 | 72 | 188 | 4.0 | 11.0 | 0.00 | 0.24 | 0.24 | 86 | 1013.2 |
| 20260831003516 | 72 | 212 | 4.0 | 11.0 | 0.00 | 0.24 | 0.24 | 86 | 1013.1 |
| 20260831003037 | 73 | 184 | 3.0 | 14.0 | 0.00 | 0.24 | 0.24 | 86 | 1013.0 |
| 20260831002520 | 73 | 263 | 5.0 | 14.0 | 0.00 | 0.24 | 0.24 | 85 | 1013.0 |
| 20260831002020 | 73 | 234 | 4.0 | 10.0 | 0.00 | 0.24 | 0.24 | 85 | 1013.0 |
| 20260831001541 | 73 | 200 | 4.0 | 10.0 | 0.00 | 0.24 | 0.24 | 85 | 1012.9 |
| 20260831001019 | 73 | 196 | 4.0 | 10.0 | 0.00 | 0.24 | 0.24 | 85 | 1013.0 |
| 20260831000517 | 73 | 166 | 2.0 | 12.0 | 0.00 | 0.24 | 0.24 | 85 | 1013.0 |
| 20260831000038 | 73 | 181 | 5.0 | 12.0 | 0.00 | 0.24 | 0.24 | 84 | 1012.9 |
| 20260830235519 | 73 | 222 | 3.0 | 11.0 | 0.00 | 0.24 | 0.24 | 84 | 1013.0 |
| 20260830235015 | 74 | 180 | 3.0 | 9.0 | 0.00 | 0.24 | 0.24 | 84 | 1012.7 |
| 20260830234537 | 74 | 116 | 2.0 | 8.0 | 0.00 | 0.24 | 0.24 | 84 | 1012.8 |
| 20260830234015 | 74 | 210 | 2.0 | 8.0 | 0.00 | 0.24 | 0.24 | 84 | 1012.9 |
| 20260830233515 | 74 | 169 | 2.0 | 8.0 | 0.00 | 0.24 | 0.24 | 84 | 1012.9 |
| 20260830233035 | 74 | 135 | 2.0 | 7.0 | 0.00 | 0.24 | 0.24 | 84 | 1013.0 |
| 20260830232519 | 74 | 175 | 1.0 | 7.0 | 0.00 | 0.24 | 0.24 | 84 | 1013.1 |
| 20260830232017 | 74 | 214 | 1.0 | 8.0 | 0.00 | 0.24 | 0.24 | 84 | 1013.0 |
| 20260830231540 | 74 | 213 | 4.0 | 10.0 | 0.00 | 0.24 | 0.24 | 84 | 1013.1 |
| 20260830231020 | 74 | 233 | 3.0 | 11.0 | 0.00 | 0.24 | 0.24 | 84 | 1013.0 |
| 20260830230519 | 74 | 266 | 3.0 | 11.0 | 0.00 | 0.24 | 0.24 | 84 | 1013.1 |
| 20260830230038 | 74 | 172 | 3.0 | 9.0 | 0.00 | 0.24 | 0.24 | 84 | 1013.1 |
| 20260830225516 | 74 | 0 | 1.0 | 11.0 | 0.00 | 0.34 | 0.24 | 84 | 1013.0 |
| 20260830225018 | 74 | 178 | 4.0 | 11.0 | 0.00 | 0.34 | 0.24 | 84 | 1013.1 |
| 20260830224536 | 74 | 174 | 3.0 | 9.0 | 0.00 | 0.34 | 0.24 | 84 | 1013.2 |
| 20260830224016 | 74 | 194 | 2.0 | 9.0 | 0.00 | 0.34 | 0.24 | 84 | 1013.0 |
| 20260830223517 | 74 | 237 | 2.0 | 8.0 | 0.00 | 0.34 | 0.24 | 84 | 1013.1 |
| 20260830223036 | 74 | 102 | 3.0 | 8.0 | 0.00 | 0.34 | 0.24 | 84 | 1012.9 |
| 20260830222519 | 74 | 144 | 3.0 | 10.0 | 0.00 | 0.34 | 0.24 | 84 | 1013.0 |
| 20260830222019 | 74 | 150 | 4.0 | 10.0 | 0.00 | 0.34 | 0.24 | 83 | 1013.1 |
| 20260830221538 | 74 | 161 | 3.0 | 9.0 | 0.00 | 0.34 | 0.24 | 83 | 1013.1 |
| 20260830221019 | 74 | 157 | 2.0 | 10.0 | 0.00 | 0.34 | 0.24 | 82 | 1013.2 |
| 20260830220518 | 74 | 204 | 3.0 | 10.0 | 0.00 | 0.34 | 0.24 | 82 | 1013.2 |
| 20260830220039 | 74 | 179 | 2.0 | 14.0 | 0.00 | 0.34 | 0.24 | 82 | 1013.2 |
| 20260830215516 | 74 | 218 | 5.0 | 14.0 | 0.00 | 0.41 | 0.24 | 81 | 1013.2 |
| 20260830215018 | 75 | 180 | 4.0 | 15.0 | 0.00 | 0.41 | 0.24 | 81 | 1013.0 |
| 20260830214538 | 75 | 159 | 3.0 | 15.0 | 0.00 | 0.41 | 0.24 | 80 | 1013.1 |
| 20260830214018 | 75 | 178 | 6.0 | 14.0 | 0.00 | 0.41 | 0.24 | 80 | 1013.1 |
| 20260830213523 | 75 | 221 | 3.0 | 8.0 | 0.00 | 0.41 | 0.24 | 79 | 1013.0 |
| 20260830213034 | 75 | 233 | 4.0 | 8.0 | 0.00 | 0.41 | 0.24 | 79 | 1013.0 |
| 20260830212516 | 75 | 226 | 2.0 | 9.0 | 0.00 | 0.41 | 0.24 | 79 | 1012.9 |
| 20260830212016 | 75 | 203 | 5.0 | 13.0 | 0.00 | 0.41 | 0.24 | 78 | 1012.9 |
| 20260830211535 | 75 | 173 | 4.0 | 14.0 | 0.00 | 0.41 | 0.24 | 78 | 1012.9 |
| 20260830211016 | 76 | 255 | 6.0 | 14.0 | 0.00 | 0.41 | 0.24 | 78 | 1012.9 |
| 20260830210516 | 76 | 222 | 6.0 | 13.0 | 0.00 | 0.41 | 0.24 | 78 | 1012.9 |
| 20260830210037 | 76 | 201 | 4.0 | 15.0 | 0.00 | 0.41 | 0.24 | 78 | 1012.9 |
| 20260830205517 | 76 | 244 | 6.0 | 15.0 | 0.00 | 0.41 | 0.24 | 77 | 1012.9 |
| 20260830205019 | 76 | 222 | 4.0 | 13.0 | 0.00 | 0.41 | 0.24 | 77 | 1012.7 |
| 20260830204539 | 76 | 207 | 4.0 | 14.0 | 0.00 | 0.41 | 0.24 | 77 | 1012.8 |
| 20260830204017 | 76 | 293 | 7.0 | 18.0 | 0.00 | 0.41 | 0.24 | 76 | 1012.8 |
| 20260830203519 | 76 | 207 | 5.0 | 18.0 | 0.00 | 0.41 | 0.24 | 76 | 1012.8 |
| 20260830203035 | 76 | 218 | 5.0 | 14.0 | 0.00 | 0.41 | 0.24 | 75 | 1012.8 |
| 20260830202517 | 77 | 201 | 4.0 | 13.0 | 0.00 | 0.41 | 0.24 | 75 | 1012.9 |
| 20260830202017 | 77 | 205 | 6.0 | 13.0 | 0.00 | 0.41 | 0.24 | 74 | 1012.9 |
| 20260830201534 | 77 | 202 | 7.0 | 13.0 | 0.00 | 0.41 | 0.24 | 74 | 1012.8 |
| 20260830201015 | 78 | 197 | 5.0 | 12.0 | 0.00 | 0.41 | 0.24 | 73 | 1012.9 |
| 20260830200520 | 78 | 247 | 4.0 | 18.0 | 0.00 | 0.41 | 0.24 | 73 | 1013.0 |
| 20260830200034 | 78 | 247 | 5.0 | 18.0 | 0.00 | 0.41 | 0.24 | 72 | 1013.0 |
| 20260830195517 | 79 | 212 | 8.0 | 19.0 | 0.00 | 0.41 | 0.24 | 70 | 1013.2 |
| 20260830195017 | 79 | 284 | 8.0 | 19.0 | 0.00 | 0.41 | 0.24 | 70 | 1013.2 |
| 20260830194547 | 80 | 231 | 8.0 | 19.0 | 0.00 | 0.41 | 0.24 | 69 | 1013.2 |
| 20260830194017 | 80 | 217 | 9.0 | 18.0 | 0.00 | 0.41 | 0.24 | 68 | 1013.1 |
| 20260830193516 | 81 | 181 | 4.0 | 19.0 | 0.00 | 0.41 | 0.24 | 69 | 1013.0 |
| 20260830193037 | 81 | 194 | 10.0 | 21.0 | 0.00 | 0.41 | 0.24 | 68 | 1013.1 |
| 20260830192519 | 81 | 284 | 7.0 | 21.0 | 0.00 | 0.41 | 0.24 | 68 | 1013.2 |
| 20260830192016 | 82 | 243 | 6.0 | 17.0 | 0.00 | 0.41 | 0.24 | 67 | 1013.1 |
| 20260830191534 | 82 | 242 | 7.0 | 19.0 | 0.00 | 0.41 | 0.24 | 65 | 1012.9 |
| 20260830191020 | 83 | 267 | 8.0 | 19.0 | 0.00 | 0.41 | 0.24 | 65 | 1013.1 |
| 20260830190517 | 83 | 232 | 7.0 | 25.0 | 0.00 | 0.41 | 0.24 | 65 | 1013.2 |
| 20260830190036 | 83 | 234 | 7.0 | 25.0 | 0.00 | 0.41 | 0.24 | 64 | 1013.0 |
| 20260830185521 | 82 | 217 | 9.0 | 24.0 | 0.00 | 0.41 | 0.24 | 64 | 1013.0 |
| 20260830185018 | 82 | 252 | 10.0 | 21.0 | 0.00 | 0.41 | 0.24 | 64 | 1013.1 |
| 20260830184535 | 82 | 161 | 10.0 | 19.0 | 0.00 | 0.41 | 0.24 | 64 | 1013.0 |
| 20260830184018 | 82 | 252 | 9.0 | 18.0 | 0.00 | 0.41 | 0.24 | 64 | 1012.8 |
| 20260830183516 | 82 | 260 | 8.0 | 22.0 | 0.00 | 0.41 | 0.24 | 64 | 1012.8 |
| 20260830183036 | 82 | 189 | 9.0 | 24.0 | 0.00 | 0.41 | 0.24 | 63 | 1012.7 |
| 20260830182517 | 83 | 288 | 11.0 | 24.0 | 0.00 | 0.41 | 0.24 | 61 | 1012.6 |
| 20260830182021 | 83 | 200 | 10.0 | 23.0 | 0.00 | 0.41 | 0.24 | 61 | 1012.5 |
| 20260830181536 | 84 | 187 | 11.0 | 23.0 | 0.00 | 0.41 | 0.24 | 59 | 1012.4 |
| 20260830181015 | 85 | 263 | 12.0 | 22.0 | 0.00 | 0.41 | 0.24 | 58 | 1012.3 |
| 20260830180516 | 86 | 272 | 9.0 | 21.0 | 0.00 | 0.41 | 0.24 | 58 | 1012.2 |
| 20260830180034 | 87 | 198 | 11.0 | 21.0 | 0.00 | 0.41 | 0.24 | 58 | 1011.9 |
| 20260830175519 | 87 | 233 | 8.0 | 16.0 | 0.00 | 0.41 | 0.24 | 59 | 1012.0 |
| 20260830175019 | 86 | 238 | 7.0 | 20.0 | 0.00 | 0.41 | 0.24 | 62 | 1011.8 |
| 20260830174552 | 86 | 220 | 8.0 | 21.0 | 0.00 | 0.41 | 0.24 | 60 | 1011.9 |
| 20260830174018 | 86 | 243 | 9.0 | 21.0 | 0.00 | 0.41 | 0.24 | 59 | 1012.1 |
| 20260830173519 | 86 | 234 | 10.0 | 20.0 | 0.00 | 0.41 | 0.24 | 61 | 1012.0 |
| 20260830173036 | 86 | 240 | 7.0 | 16.0 | 0.00 | 0.41 | 0.24 | 60 | 1011.9 |
| 20260830172518 | 86 | 240 | 4.0 | 15.0 | 0.00 | 0.41 | 0.24 | 62 | 1012.0 |
| 20260830172021 | 86 | 217 | 7.0 | 15.0 | 0.00 | 0.41 | 0.24 | 62 | 1012.0 |
| 20260830171540 | 85 | 147 | 7.0 | 15.0 | 0.00 | 0.41 | 0.24 | 60 | 1012.1 |
| 20260830171018 | 85 | 181 | 7.0 | 17.0 | 0.00 | 0.41 | 0.24 | 61 | 1012.1 |
| 20260830170520 | 85 | 201 | 7.0 | 17.0 | 0.00 | 0.41 | 0.24 | 63 | 1012.1 |
| 20260830170039 | 85 | 235 | 8.0 | 16.0 | 0.00 | 0.41 | 0.24 | 60 | 1012.1 |
| 20260830165518 | 85 | 206 | 5.0 | 14.0 | 0.00 | 0.41 | 0.24 | 61 | 1012.2 |
| 20260830165019 | 85 | 174 | 6.0 | 15.0 | 0.00 | 0.41 | 0.24 | 61 | 1012.2 |
| 20260830164540 | 84 | 188 | 3.0 | 15.0 | 0.00 | 0.41 | 0.24 | 63 | 1012.3 |
| 20260830164023 | 84 | 230 | 6.0 | 12.0 | 0.00 | 0.41 | 0.24 | 64 | 1012.2 |
| 20260830163520 | 83 | 263 | 6.0 | 13.0 | 0.00 | 0.41 | 0.24 | 64 | 1012.2 |
| 20260830163050 | 83 | 174 | 5.0 | 18.0 | 0.00 | 0.41 | 0.24 | 65 | 1012.3 |
| 20260830162519 | 83 | 246 | 7.0 | 18.0 | 0.00 | 0.41 | 0.24 | 64 | 1012.4 |
| 20260830162019 | 82 | 189 | 5.0 | 11.0 | 0.00 | 0.41 | 0.24 | 66 | 1012.5 |
| 20260830161550 | 82 | 174 | 3.0 | 14.0 | 0.00 | 0.41 | 0.24 | 68 | 1012.5 |
| 20260830161020 | 82 | 198 | 6.0 | 14.0 | 0.00 | 0.41 | 0.24 | 66 | 1012.5 |
| 20260830160519 | 82 | 164 | 3.0 | 9.0 | 0.00 | 0.41 | 0.24 | 69 | 1012.6 |
| 20260830160041 | 82 | 180 | 3.0 | 9.0 | 0.00 | 0.41 | 0.24 | 67 | 1012.6 |
| 20260830155521 | 82 | 230 | 3.0 | 9.0 | 0.00 | 0.41 | 0.24 | 67 | 1012.6 |
| 20260830155020 | 81 | 195 | 3.0 | 10.0 | 0.00 | 0.41 | 0.24 | 69 | 1012.7 |
| 20260830154539 | 81 | 159 | 4.0 | 12.0 | 0.00 | 0.41 | 0.24 | 70 | 1012.9 |
| 20260830154017 | 81 | 200 | 4.0 | 12.0 | 0.00 | 0.41 | 0.24 | 71 | 1012.9 |
| 20260830153516 | 80 | 204 | 1.0 | 10.0 | 0.00 | 0.41 | 0.24 | 72 | 1012.9 |
| 20260830153039 | 80 | 198 | 3.0 | 10.0 | 0.00 | 0.41 | 0.24 | 71 | 1012.8 |
| 20260830152519 | 79 | 192 | 4.0 | 9.0 | 0.00 | 0.41 | 0.24 | 72 | 1012.8 |
| 20260830152016 | 79 | 277 | 2.0 | 12.0 | 0.00 | 0.41 | 0.24 | 74 | 1012.7 |
| 20260830151543 | 78 | 215 | 3.0 | 15.0 | 0.00 | 0.41 | 0.24 | 74 | 1012.8 |
| 20260830151018 | 78 | 196 | 5.0 | 15.0 | 0.00 | 0.41 | 0.24 | 73 | 1012.9 |
| 20260830150518 | 78 | 231 | 3.0 | 13.0 | 0.00 | 0.41 | 0.24 | 74 | 1012.9 |
| 20260830150039 | 77 | 217 | 2.0 | 10.0 | 0.00 | 0.41 | 0.24 | 75 | 1012.9 |
| 20260830145527 | 77 | 82 | 3.0 | 11.0 | 0.00 | 0.41 | 0.24 | 77 | 1012.8 |
| 20260830145019 | 76 | 202 | 4.0 | 14.0 | 0.00 | 0.41 | 0.24 | 78 | 1012.7 |
| 20260830144538 | 76 | 169 | 4.0 | 14.0 | 0.00 | 0.41 | 0.24 | 78 | 1012.7 |
| 20260830144019 | 75 | 229 | 4.0 | 14.0 | 0.00 | 0.41 | 0.24 | 79 | 1012.7 |
| 20260830143519 | 75 | 188 | 3.0 | 11.0 | 0.00 | 0.41 | 0.24 | 80 | 1012.6 |
| 20260830143038 | 74 | 194 | 5.0 | 11.0 | 0.00 | 0.41 | 0.24 | 80 | 1012.8 |
| 20260830142518 | 74 | 120 | 5.0 | 11.0 | 0.00 | 0.41 | 0.24 | 81 | 1012.9 |
| 20260830142016 | 73 | 228 | 3.0 | 12.0 | 0.00 | 0.41 | 0.24 | 82 | 1012.9 |
| 20260830141538 | 72 | 192 | 4.0 | 15.0 | 0.00 | 0.41 | 0.24 | 84 | 1013.0 |
| 20260830141017 | 72 | 203 | 6.0 | 15.0 | 0.00 | 0.41 | 0.24 | 85 | 1013.1 |
| 20260830140517 | 71 | 219 | 3.0 | 10.0 | 0.00 | 0.41 | 0.24 | 87 | 1013.0 |
| 20260830140033 | 71 | 184 | 2.0 | 10.0 | 0.00 | 0.41 | 0.24 | 88 | 1013.1 |
| 20260830135523 | 70 | 153 | 2.0 | 12.0 | 0.00 | 0.41 | 0.24 | 90 | 1013.0 |
| 20260830135017 | 70 | 216 | 2.0 | 12.0 | 0.00 | 0.41 | 0.24 | 89 | 1013.0 |
| 20260830134536 | 69 | 249 | 4.0 | 12.0 | 0.00 | 0.41 | 0.24 | 90 | 1013.1 |
| 20260830134018 | 69 | 153 | 3.0 | 11.0 | 0.00 | 0.41 | 0.24 | 90 | 1013.1 |
| 20260830133518 | 69 | 209 | 3.0 | 11.0 | 0.00 | 0.41 | 0.24 | 91 | 1013.1 |
| 20260830133044 | 69 | 231 | 2.0 | 9.0 | 0.00 | 0.41 | 0.24 | 92 | 1013.2 |
| 20260830132517 | 68 | 0 | 2.0 | 8.0 | 0.00 | 0.41 | 0.24 | 92 | 1013.1 |
| 20260830132021 | 68 | 86 | 2.0 | 8.0 | 0.00 | 0.41 | 0.24 | 92 | 1013.2 |
| 20260830131534 | 68 | 128 | 4.0 | 8.0 | 0.00 | 0.41 | 0.24 | 92 | 1013.1 |
| 20260830131017 | 68 | 185 | 2.0 | 8.0 | 0.00 | 0.41 | 0.24 | 92 | 1013.1 |
| 20260830130517 | 68 | 208 | 3.0 | 10.0 | 0.00 | 0.41 | 0.24 | 92 | 1013.3 |
| 20260830130050 | 67 | 151 | 2.0 | 10.0 | 0.00 | 0.41 | 0.24 | 92 | 1013.4 |
| 20260830125519 | 67 | 163 | 3.0 | 11.0 | 0.00 | 0.41 | 0.24 | 92 | 1013.4 |
| 20260830125017 | 67 | 153 | 2.0 | 12.0 | 0.04 | 0.41 | 0.24 | 92 | 1013.4 |
| 20260830124541 | 67 | 180 | 2.0 | 12.0 | 0.04 | 0.41 | 0.24 | 92 | 1013.5 |
| 20260830124016 | 67 | 198 | 3.0 | 9.0 | 0.04 | 0.41 | 0.24 | 92 | 1013.5 |
| 20260830123516 | 67 | 0 | 1.0 | 8.0 | 0.04 | 0.41 | 0.24 | 92 | 1013.4 |
| 20260830123038 | 67 | 172 | 4.0 | 10.0 | 0.04 | 0.41 | 0.24 | 92 | 1013.4 |
| 20260830122518 | 67 | 233 | 4.0 | 11.0 | 0.05 | 0.41 | 0.24 | 92 | 1013.4 |
| 20260830122018 | 67 | 180 | 5.0 | 11.0 | 0.05 | 0.41 | 0.24 | 92 | 1013.4 |
| 20260830121537 | 67 | 230 | 4.0 | 10.0 | 0.05 | 0.41 | 0.24 | 91 | 1013.4 |
| 20260830121018 | 67 | 190 | 4.0 | 9.0 | 0.05 | 0.41 | 0.24 | 91 | 1013.5 |
| 20260830120519 | 67 | 180 | 3.0 | 12.0 | 0.05 | 0.41 | 0.24 | 91 | 1013.5 |
| 20260830120034 | 67 | 179 | 3.0 | 12.0 | 0.05 | 0.41 | 0.24 | 91 | 1013.5 |
| 20260830115516 | 67 | 222 | 5.0 | 12.0 | 0.05 | 0.41 | 0.24 | 91 | 1013.3 |
| 20260830115018 | 67 | 234 | 2.0 | 11.0 | 0.02 | 0.37 | 0.20 | 91 | 1013.1 |
| 20260830114538 | 67 | 192 | 5.0 | 11.0 | 0.02 | 0.37 | 0.20 | 91 | 1013.2 |
| 20260830114018 | 67 | 246 | 2.0 | 9.0 | 0.03 | 0.37 | 0.20 | 90 | 1013.2 |
| 20260830113518 | 67 | 0 | 2.0 | 10.0 | 0.03 | 0.37 | 0.20 | 90 | 1013.0 |
| 20260830113032 | 67 | 176 | 3.0 | 10.0 | 0.02 | 0.36 | 0.19 | 90 | 1012.9 |
| 20260830112517 | 67 | 183 | 2.0 | 9.0 | 0.03 | 0.36 | 0.19 | 90 | 1012.9 |
| 20260830112017 | 67 | 190 | 2.0 | 9.0 | 0.10 | 0.36 | 0.19 | 90 | 1013.0 |
| 20260830111532 | 67 | 160 | 2.0 | 7.0 | 0.10 | 0.36 | 0.19 | 90 | 1012.8 |
| 20260830111015 | 67 | 185 | 2.0 | 6.0 | 0.10 | 0.36 | 0.19 | 89 | 1012.8 |
| 20260830110517 | 67 | 0 | 1.0 | 10.0 | 0.10 | 0.36 | 0.19 | 89 | 1012.8 |
| 20260830110044 | 67 | 107 | 2.0 | 10.0 | 0.10 | 0.36 | 0.19 | 89 | 1012.8 |
| 20260830105519 | 67 | 130 | 2.0 | 9.0 | 0.11 | 0.36 | 0.19 | 89 | 1012.8 |
| 20260830105015 | 67 | 184 | 3.0 | 9.0 | 0.11 | 0.35 | 0.18 | 89 | 1012.7 |
| 20260830104538 | 67 | 184 | 3.0 | 11.0 | 0.10 | 0.34 | 0.17 | 89 | 1012.8 |
| 20260830104018 | 67 | 184 | 5.0 | 12.0 | 0.11 | 0.34 | 0.17 | 88 | 1012.7 |
| 20260830103518 | 67 | 278 | 5.0 | 19.0 | 0.11 | 0.34 | 0.17 | 88 | 1012.8 |
| 20260830103041 | 67 | 182 | 5.0 | 20.0 | 0.10 | 0.33 | 0.16 | 87 | 1012.6 |
| 20260830102517 | 68 | 191 | 7.0 | 20.0 | 0.09 | 0.32 | 0.15 | 87 | 1012.7 |
| 20260830102019 | 68 | 190 | 4.0 | 13.0 | 0.03 | 0.26 | 0.09 | 87 | 1012.6 |
| 20260830101545 | 68 | 184 | 7.0 | 13.0 | 0.03 | 0.26 | 0.09 | 88 | 1012.3 |
| 20260830101020 | 68 | 152 | 5.0 | 13.0 | 0.03 | 0.26 | 0.09 | 89 | 1012.4 |
| 20260830100518 | 68 | 221 | 4.0 | 15.0 | 0.03 | 0.26 | 0.09 | 89 | 1012.6 |
| 20260830100036 | 68 | 152 | 6.0 | 15.0 | 0.03 | 0.26 | 0.09 | 88 | 1012.5 |
| 20260830095518 | 68 | 211 | 3.0 | 12.0 | 0.01 | 0.24 | 0.07 | 88 | 1012.5 |
| 20260830095018 | 68 | 150 | 5.0 | 12.0 | 0.01 | 0.24 | 0.07 | 88 | 1012.7 |
| 20260830094543 | 68 | 163 | 1.0 | 11.0 | 0.01 | 0.24 | 0.07 | 88 | 1012.9 |
| 20260830094016 | 68 | 249 | 4.0 | 11.0 | 0.00 | 0.23 | 0.06 | 89 | 1012.9 |
| 20260830093520 | 67 | 263 | 3.0 | 9.0 | 0.00 | 0.23 | 0.06 | 88 | 1012.7 |
| 20260830093039 | 67 | 115 | 4.0 | 10.0 | 0.00 | 0.23 | 0.06 | 89 | 1012.7 |
| 20260830092521 | 67 | 241 | 3.0 | 10.0 | 0.00 | 0.23 | 0.06 | 89 | 1012.9 |
| 20260830092020 | 67 | 166 | 2.0 | 8.0 | 0.02 | 0.23 | 0.06 | 89 | 1012.9 |
| 20260830091538 | 67 | 190 | 1.0 | 9.0 | 0.03 | 0.23 | 0.06 | 90 | 1012.7 |
| 20260830091016 | 67 | 0 | 2.0 | 9.0 | 0.03 | 0.23 | 0.06 | 90 | 1013.0 |
| 20260830090516 | 67 | 129 | 1.0 | 4.0 | 0.03 | 0.23 | 0.06 | 90 | 1013.0 |
| 20260830090037 | 67 | 148 | 1.0 | 3.0 | 0.03 | 0.23 | 0.06 | 90 | 1013.3 |
| 20260830085515 | 67 | 0 | 0.0 | 5.0 | 0.03 | 0.23 | 0.06 | 90 | 1013.5 |
| 20260830085015 | 67 | 0 | 0.0 | 5.0 | 0.03 | 0.23 | 0.06 | 90 | 1013.2 |
| 20260830084542 | 67 | 0 | 1.0 | 5.0 | 0.03 | 0.23 | 0.06 | 90 | 1013.2 |
| 20260830084019 | 67 | 120 | 1.0 | 4.0 | 0.03 | 0.23 | 0.06 | 90 | 1013.0 |
| 20260830083517 | 67 | 160 | 0.0 | 3.0 | 0.03 | 0.23 | 0.06 | 90 | 1013.0 |
| 20260830083046 | 67 | 109 | 0.0 | 3.0 | 0.03 | 0.23 | 0.06 | 90 | 1012.9 |
| 20260830082516 | 67 | 167 | 1.0 | 3.0 | 0.03 | 0.23 | 0.06 | 90 | 1012.9 |
| 20260830082019 | 67 | 118 | 1.0 | 4.0 | 0.01 | 0.21 | 0.04 | 90 | 1013.0 |
| 20260830081537 | 67 | 165 | 1.0 | 4.0 | 0.00 | 0.20 | 0.03 | 91 | 1013.1 |
| 20260830081016 | 67 | 147 | 1.0 | 3.0 | 0.00 | 0.20 | 0.03 | 90 | 1013.3 |
| 20260830080518 | 67 | 119 | 1.0 | 3.0 | 0.01 | 0.20 | 0.03 | 90 | 1013.4 |
| 20260830080039 | 67 | 0 | 0.0 | 2.0 | 0.01 | 0.20 | 0.03 | 90 | 1013.7 |
| 20260830075630 | 67 | 0 | 0.0 | 2.0 | 0.03 | 0.20 | 0.03 | 90 | 1013.8 |
| 20260830075017 | 67 | 0 | 0.0 | 2.0 | 0.03 | 0.20 | 0.03 | 89 | 1013.5 |
| 20260830074539 | 67 | 0 | 0.0 | 4.0 | 0.03 | 0.20 | 0.03 | 89 | 1013.1 |